Meteo Giornale » Osservazioni meteo Italia » Pratica Di Mare

ore: 09:55 - Osservazioni Meteo Pratica Di Mare
Lat. 41° 39' N Lon. 12° 27' E Alt. 6 metri s.l.m.

foschia Europe/Rome

10 °C

Foschia

Temp. 24 Ore

9 °C

13 °C

Est

9.3 Km/h

Dew point 8 °C

Umidità 87 %

Visibilità  5 Km

Il sole sorge alle ore 06:46

Il sole tramonta alle ore 17:59

Data e Ora Cielo e Fenomeni T °C DP °C Um. % Pres. hPa Vis. km Vento km/h
Oggi h: 09:55 foschia Foschia 10 8 87 1024 5 E 9.3
Oggi h: 08:55 foschia Foschia 10 7 81 1024 3 E 7.4
Oggi h: 07:55 foschia Foschia 9 6 81 1023 1 E 7.4
Oggi h: 06:55 foschia Foschia 9 7 87 1023 1 E 11.1
Oggi h: 06:34 foschia Foschia 10 7 81 1023 2 E 13
Oggi h: 05:55 molto_nuvoloso Molto Nuvoloso 11 8 81 1023 8 N 3.7
Oggi h: 03:55 molto_nuvoloso Molto Nuvoloso 11 8 81 1023 8 N 9.3
Oggi h: 01:55 molto_nuvoloso Molto Nuvoloso 11 9 87 1025 8 N 7.4
Oggi h: 00:55 molto_nuvoloso Molto Nuvoloso 11 9 87 1025 8 N 5.5
Ieri h: 23:55 molto_nuvoloso Molto Nuvoloso 11 8 81 1026 8 N/NE 7.4
Ieri h: 22:55 molto_nuvoloso Molto Nuvoloso 10 8 87 1026 8 N 7.4
Ieri h: 21:55 molto_nuvoloso Molto Nuvoloso 11 8 81 1026 8 N 7.4
Ieri h: 20:55 molto_nuvoloso Molto Nuvoloso 11 9 87 1026 8 N 5.5
Ieri h: 19:55 molto_nuvoloso Molto Nuvoloso 11 9 87 1026 7 N 3.7
Ieri h: 17:55 foschia Foschia 12 10 87 1026 5 O 7.4
Ieri h: 16:55 foschia Foschia 12 10 87 1027 5 O 9.3
Ieri h: 15:55 foschia Foschia 13 10 81 1027 5 O 11.1
Ieri h: 14:55 foschia Foschia 12 9 81 1027 3 O/SO 11.1
Ieri h: 13:55 foschia Foschia 11 9 87 1028 1 SO 11.1
Ieri h: 12:55 nebbia Nebbia 11 8 81 1029 0.8 N 5.5
Ieri h: 12:29 nebbia Nebbia 11 8 81 1029 0.8 N 5.5
Ieri h: 11:55 nebbia Nebbia 11 8 81 1029 0.6 SO 7.4
Ieri h: 10:55 nebbia Nebbia 10 8 87 1029 0.4 N 1.8
Ieri h: 09:55 nebbia Nebbia 10 8 87 1029 0.1 N 3.7